Location: Poprad
(49.0500°N, 20.3000°E)
Time: 20:20:18
(UTC+01:00)

ISS - Pass Details

Date: 26 February 2019
Orbit: 406 x 411 km, 51.6° (Epoch: 19 March)

Event Time Altitude Azimuth Distance (km) Brightness Sun altitude
Exits shadow 05:34:11 - 227° (SW) 1,771 -1.0 -9.5°
Reaches altitude 10° 05:34:58 10° 224° (SW) 1,460 -1.4 -9.4°
Maximum altitude 05:38:06 45° 150° (SSE) 564 -2.8 -8.9°
Drops below altitude 10° 05:41:16 10° 76° (ENE) 1,468 0.4 -8.4°
Sets 05:43:24 0° 70° (ENE) 2,332 1.4 -8.0°
